[[{"header":{"parameterUnit":"m.s-1","parameterCategory":1,"la1":30.2991,"la2":30.254,"lo1":-89.0895,"lo2":-89.0444,"dy":0.0017,"dx":0.0017,"nx":28,"ny":28,"refTime":"2024-07-10T21:00:00:Z","depth":0,"parameterNumber":2,"parameterNumberName":"U-component_of_WINDS"},"data":[0,0,0,0,0,0,0,0,0,0,0,0,0,0,0,0,0,0,0,0,0,0,0,0,0,0,0,0,0,0,0,0,0,0,0,0,0,0,0,0,0,0,0,0,0,0,0,0,0,0,0,0,0,0,0,0,0,0,2.6869,2.6869,0,2.6897,2.6898,2.6898,2.6827,2.6825,2.6823,2.6821,2.6851,2.6853,2.6856,0,0,0,0,0,0,0,0,0,0,0,0,0,2.6754,2.6757,2.6869,2.6869,2.6869,2.6897,2.6898,2.6898,2.6828,2.6825,2.6822,2.682,2.685,2.6853,2.6856,0,0,0,0,0,0,0,0,0,0,0,0,0,2.6795,2.6757,2.6869,2.6838,2.6835,2.6897,2.6898,2.6898,2.6828,2.6825,2.6822,2.6818,2.6848,2.6853,2.6857,2.695,0,0,2.687,2.6872,0,0,0,0,0,0,0,0,2.6793,2.68,2.6842,2.684,2.6837,2.6855,2.6868,2.6916,2.6829,2.6831,2.6821,2.6817,2.6855,2.6858,2.6871,2.6952,2.6953,2.687,2.6873,2.6875,2.6876,0,0,0,0,0,0,0,2.679,2.6798,2.688,2.6843,2.684,2.6823,2.6825,2.6877,2.6861,2.683,2.6825,2.683,2.6853,2.6867,2.6871,2.6953,2.687,2.6874,2.6877,2.6878,2.7112,2.7115,0,0,0,0,0,0,2.6791,2.6796,2.6879,2.6881,2.6806,2.6827,2.683,2.6853,2.686,2.6858,2.6833,2.6826,2.6861,2.6866,2.6872,2.6982,2.6875,2.6879,2.6881,2.7108,2.7113,2.7117,0,0,0,0,0,0,2.6789,2.6799,2.6878,2.6837,2.6846,2.6833,2.6859,2.6855,2.6869,2.6862,2.6859,2.685,2.6859,2.6866,2.6931,2.6982,2.6881,2.6885,2.7104,2.711,2.7115,2.7202,0,0,0,0,0,0,2.6786,2.6799,2.6834,2.6838,2.6848,2.6937,2.6862,2.6858,2.6877,2.6869,2.6877,2.6876,2.6857,2.6925,2.6936,2.6986,2.6888,2.7099,2.7106,2.7113,2.7194,2.721,2.7223,0,0,0,0,0,2.6782,2.6858,2.6836,2.6847,2.6892,2.694,2.6945,2.6922,2.6881,2.6916,2.6912,2.6875,2.6975,2.6933,2.6944,2.6996,2.7096,2.7104,2.7112,2.7188,2.7207,2.7222,0,0,0,0,0,0,2.686,2.6858,2.6834,2.6913,2.6927,2.6928,2.6972,2.6942,2.6968,2.696,2.693,2.6933,2.7004,2.7006,2.6959,2.7087,2.7028,2.7039,2.7082,2.71,2.7114,2.7111,2.6892,0,0,0,0,0,2.6886,2.6925,2.6921,2.6991,2.7,2.6985,2.7005,2.6986,2.6999,2.7005,2.7005,2.7019,2.7053,2.7077,2.7108,2.7195,2.7195,2.7236,2.725,2.7262,2.7271,2.7317,2.7335,2.7143,2.7143,2.7143,0,0,2.6941,2.6945,2.6971,2.7007,2.7016,2.7057,2.699,2.7036,2.7067,2.7012,2.7073,2.7074,2.7088,2.7165,2.7198,2.7169,2.7324,2.7272,2.7281,2.7285,2.7327,2.7345,2.7362,2.7149,2.7148,2.7147,0,0,2.7062,2.7069,2.7128,2.7138,2.7152,2.7141,2.7156,2.7161,2.7159,2.722,2.718,2.7216,2.7275,2.7287,2.7301,2.7427,2.7394,2.7438,2.7511,2.7556,2.7572,2.7585,2.7629,2.7646,2.7448,2.7448,2.7448,0,2.7128,2.7188,2.7162,2.7211,2.7228,2.718,2.724,2.7251,2.7275,2.7288,2.7254,2.7328,2.7335,2.7413,2.7444,2.7457,2.7472,2.7437,2.7571,2.7585,2.7596,2.7639,2.7655,2.7453,2.7452,2.7452,2.7451,0,2.7269,2.7312,2.7358,2.7381,2.7404,2.7458,2.744,2.7466,2.7445,2.7438,2.7501,2.7507,2.7539,2.7556,2.7536,2.7632,2.7613,2.7576,2.7517,2.762,2.7659,2.7675,2.746,2.7459,2.7457,2.7456,0,0,2.7439,2.7448,2.7465,2.7475,2.7487,2.752,2.7572,2.7602,2.7625,2.7643,2.7686,2.7738,2.7704,2.772,2.7701,2.7741,2.784,2.7699,2.7699,2.7725,2.7945,2.7972,2.7991,2.7818,2.7821,2.7824,2.7944,0,2.7558,2.7647,2.7625,2.7714,2.7753,2.7708,2.7753,2.7766,2.7761,2.7793,2.7788,2.7825,2.7778,2.7787,2.7824,2.782,2.7884,2.7811,2.7858,2.786,2.7855,2.8012,2.8041,2.8154,2.7959,2.7962,2.7963,0,2.7709,2.7732,2.7825,2.783,2.7846,2.7887,2.7913,2.7945,2.7958,2.7952,2.797,2.7943,2.7995,2.7936,2.8006,2.7958,2.7976,2.7977,2.798,2.7983,2.7918,2.8019,2.8189,2.8206,2.7987,2.7985,2.7984,0,2.7823,2.7878,2.794,2.7951,2.7959,2.7989,2.7994,2.8004,2.8023,2.8047,2.8059,2.8089,2.8104,2.8128,2.811,2.8068,2.8183,2.8123,2.8179,2.818,2.8205,2.8204,2.838,2.8218,2.8218,2.8217,2.8217,0,2.7958,2.8016,2.7992,2.803,2.8094,2.8068,2.8133,2.8132,2.8142,2.8179,2.8143,2.8179,2.8153,2.8187,2.8173,2.8234,2.8241,2.8238,2.8233,2.8241,2.8241,2.8251,2.8243,2.8222,2.8221,2.822,2.8219,0,2.8096,2.8083,2.8147,2.815,2.8152,2.8199,2.8201,2.8237,2.8229,2.8277,2.8287,2.8276,2.8314,2.8298,2.8338,2.8329,2.8407,2.8392,2.8402,2.8398,2.8455,2.845,2.8645,2.8669,2.8491,2.8493,2.8495,0,2.8183,2.8227,2.8234,2.8256,2.8264,2.8301,2.832,2.8297,2.8319,2.8338,2.8372,2.8406,2.8433,2.8496,2.8491,2.8522,2.8508,2.8574,2.8512,2.8518,2.8508,2.8505,2.8509,2.8586,2.8588,2.859,2.8591,0,2.8339,2.833,2.836,2.8388,2.8413,2.8434,2.8452,2.8472,2.8449,2.8477,2.8515,2.8536,2.8577,2.8612,2.8639,2.8644,2.8614,2.8611,2.8625,2.8633,2.8637,2.8635,2.8435,2.8606,2.8605,2.8603,2.8603,2.8602,2.8453,2.849,2.8501,2.8536,2.8547,2.8564,2.8598,2.8594,2.8626,2.8657,2.8642,2.8686,2.8698,2.8732,2.8741,2.8776,2.875,2.8771,2.8776,2.8782,2.8789,2.8632,2.8781,2.878,2.878,2.8779,2.8779,0,2.8606,2.8611,2.8644,2.8669,2.8697,2.8666,2.8684,2.871,2.8749,2.8763,2.879,2.8834,2.8868,2.8866,2.8897,2.8925,2.8912,2.8934,2.8932,2.8933,2.8811,2.8795,2.8944,2.8944,2.8944,2.8944,2.8944,2.8944,2.8689,2.875,2.8742,2.8807,2.8811,2.8855,2.8868,2.8884,2.8894,2.8945,2.8973,2.8972,2.8979,2.9011,2.904,2.9039,2.9052,2.9079,2.9073,2.8958,2.8942,2.8926,2.8911,2.9082,2.9083,2.9192,2.9193,2.9194]},{"header":{"parameterUnit":"m.s-1","parameterCategory":1,"la1":30.2991,"la2":30.254,"lo1":-89.0895,"lo2":-89.0444,"dy":0.0017,"dx":0.0017,"nx":28,"ny":28,"refTime":"2024-07-10T21:00:00:Z","depth":0,"parameterNumber":3,"parameterNumberName":"V-component_of_WINDS"},"data":[0,0,0,0,0,0,0,0,0,0,0,0,0,0,0,0,0,0,0,0,0,0,0,0,0,0,0,0,0,0,0,0,0,0,0,0,0,0,0,0,0,0,0,0,0,0,0,0,0,0,0,0,0,0,0,0,0,0,-1.8305,-1.8306,0,-1.8402,-1.8403,-1.8404,-1.8417,-1.8416,-1.8415,-1.8414,-1.8513,-1.8516,-1.852,0,0,0,0,0,0,0,0,0,0,0,0,0,-1.813,-1.8133,-1.8305,-1.8306,-1.8307,-1.8402,-1.8403,-1.8405,-1.8417,-1.8416,-1.8415,-1.8414,-1.8512,-1.8516,-1.852,0,0,0,0,0,0,0,0,0,0,0,0,0,-1.8215,-1.8134,-1.8305,-1.8325,-1.8328,-1.8402,-1.8403,-1.8405,-1.8417,-1.8416,-1.8414,-1.8413,-1.851,-1.8515,-1.852,-1.8581,0,0,-1.8537,-1.8539,0,0,0,0,0,0,0,0,-1.821,-1.8221,-1.8321,-1.8324,-1.8327,-1.8396,-1.8378,-1.8464,-1.8417,-1.8383,-1.8414,-1.8412,-1.8475,-1.8483,-1.8504,-1.8585,-1.859,-1.8537,-1.854,-1.8542,-1.8544,0,0,0,0,0,0,0,-1.8204,-1.8217,-1.8343,-1.8322,-1.8326,-1.8329,-1.834,-1.8394,-1.8436,-1.8386,-1.8387,-1.8398,-1.8476,-1.8499,-1.8507,-1.8591,-1.8537,-1.8542,-1.8545,-1.8547,-1.8727,-1.8729,0,0,0,0,0,0,-1.8194,-1.8212,-1.834,-1.8346,-1.8264,-1.8333,-1.8345,-1.8375,-1.8435,-1.8443,-1.84,-1.8399,-1.8491,-1.8501,-1.851,-1.8585,-1.8542,-1.8547,-1.855,-1.8725,-1.8727,-1.8729,0,0,0,0,0,0,-1.8191,-1.8206,-1.8336,-1.828,-1.8296,-1.8338,-1.8372,-1.8378,-1.8401,-1.8445,-1.8453,-1.8415,-1.849,-1.8503,-1.8563,-1.8588,-1.855,-1.8554,-1.8723,-1.8726,-1.8728,-1.8734,0,0,0,0,0,0,-1.8186,-1.8204,-1.8228,-1.828,-1.8299,-1.8388,-1.8373,-1.8381,-1.841,-1.8409,-1.8462,-1.8469,-1.849,-1.8555,-1.8568,-1.8595,-1.8559,-1.8721,-1.8725,-1.8727,-1.8732,-1.8737,-1.8741,0,0,0,0,0,-1.8179,-1.8225,-1.8229,-1.8244,-1.8329,-1.8389,-1.84,-1.8423,-1.8412,-1.8436,-1.8464,-1.8468,-1.8584,-1.8561,-1.8576,-1.8605,-1.872,-1.8724,-1.8727,-1.873,-1.8736,-1.8741,0,0,0,0,0,0,-1.8175,-1.8233,-1.8237,-1.8301,-1.834,-1.8391,-1.8422,-1.8429,-1.8472,-1.847,-1.8496,-1.8508,-1.8567,-1.8592,-1.8566,-1.8666,-1.8651,-1.8657,-1.8648,-1.8654,-1.8658,-1.865,-1.8563,0,0,0,0,0,-1.8181,-1.8225,-1.8273,-1.8326,-1.8345,-1.838,-1.8407,-1.8422,-1.8463,-1.8479,-1.8513,-1.8552,-1.8598,-1.8627,-1.8671,-1.8736,-1.8748,-1.8763,-1.8767,-1.8771,-1.8776,-1.8812,-1.8819,-1.8741,-1.8741,-1.8741,0,0,-1.8195,-1.8232,-1.8258,-1.8326,-1.8358,-1.8402,-1.8394,-1.8442,-1.8475,-1.8487,-1.8546,-1.8572,-1.8618,-1.8681,-1.871,-1.8703,-1.88,-1.8775,-1.8778,-1.8781,-1.8817,-1.8824,-1.883,-1.8744,-1.8743,-1.8743,0,0,-1.8244,-1.8276,-1.8323,-1.8355,-1.8404,-1.8427,-1.8438,-1.8489,-1.8506,-1.8566,-1.8575,-1.8616,-1.8693,-1.8726,-1.8753,-1.8814,-1.8819,-1.8827,-1.885,-1.8885,-1.8891,-1.8896,-1.8918,-1.8925,-1.8833,-1.8833,-1.8833,0,-1.8255,-1.8323,-1.8347,-1.8394,-1.8423,-1.8436,-1.8484,-1.8514,-1.8574,-1.8594,-1.8586,-1.8684,-1.8716,-1.8787,-1.8802,-1.8823,-1.8837,-1.8821,-1.8888,-1.8894,-1.8899,-1.892,-1.8928,-1.8834,-1.8834,-1.8833,-1.8833,0,-1.8334,-1.8381,-1.8413,-1.8471,-1.8504,-1.8552,-1.8583,-1.8613,-1.8625,-1.8649,-1.871,-1.8749,-1.8801,-1.8819,-1.8831,-1.8892,-1.8886,-1.8883,-1.8867,-1.8907,-1.8927,-1.8936,-1.8835,-1.8834,-1.8834,-1.8834,0,0,-1.8382,-1.8453,-1.8464,-1.8491,-1.8545,-1.8582,-1.863,-1.8682,-1.8707,-1.8749,-1.879,-1.8855,-1.8853,-1.8883,-1.8898,-1.8929,-1.8975,-1.8922,-1.8924,-1.893,-1.9044,-1.9046,-1.9055,-1.8979,-1.898,-1.8981,-1.904,0,-1.8436,-1.8522,-1.8545,-1.8618,-1.8662,-1.8675,-1.8717,-1.8755,-1.8779,-1.8819,-1.8845,-1.8891,-1.8884,-1.8903,-1.8934,-1.8963,-1.8998,-1.8959,-1.9017,-1.9018,-1.9004,-1.9066,-1.9068,-1.9122,-1.9048,-1.905,-1.9051,0,-1.8511,-1.8554,-1.8632,-1.8681,-1.87,-1.8737,-1.8786,-1.8825,-1.8868,-1.8883,-1.8917,-1.893,-1.8981,-1.8963,-1.9033,-1.9006,-1.9031,-1.9049,-1.9051,-1.9057,-1.9037,-1.9073,-1.9139,-1.9147,-1.9063,-1.9062,-1.9061,0,-1.8538,-1.8615,-1.8672,-1.8694,-1.8753,-1.8779,-1.8804,-1.8846,-1.8876,-1.8919,-1.8938,-1.8986,-1.9013,-1.905,-1.9075,-1.906,-1.9143,-1.9127,-1.9157,-1.9156,-1.9174,-1.9172,-1.9244,-1.919,-1.919,-1.919,-1.919,0,-1.8596,-1.8643,-1.8685,-1.8719,-1.8772,-1.8798,-1.885,-1.8876,-1.8913,-1.8953,-1.8967,-1.9004,-1.9036,-1.9077,-1.9097,-1.9152,-1.9164,-1.9178,-1.9182,-1.9176,-1.9175,-1.9193,-1.919,-1.9192,-1.9192,-1.9191,-1.9191,0,-1.8635,-1.8665,-1.8727,-1.8778,-1.8791,-1.8828,-1.8871,-1.8905,-1.893,-1.898,-1.8993,-1.9032,-1.9081,-1.911,-1.9173,-1.9186,-1.9247,-1.925,-1.9233,-1.9235,-1.9263,-1.9259,-1.9349,-1.9362,-1.9299,-1.93,-1.93,0,-1.867,-1.8707,-1.8761,-1.8789,-1.8815,-1.8859,-1.889,-1.8917,-1.8948,-1.9,-1.9028,-1.9078,-1.912,-1.9198,-1.9232,-1.928,-1.9284,-1.9312,-1.9291,-1.9284,-1.9284,-1.9282,-1.9286,-1.9315,-1.9316,-1.9316,-1.9317,0,-1.8729,-1.8742,-1.8785,-1.8834,-1.8869,-1.8909,-1.8948,-1.897,-1.9004,-1.9038,-1.9089,-1.9121,-1.9185,-1.9235,-1.9286,-1.9312,-1.932,-1.9323,-1.9333,-1.9327,-1.9315,-1.9321,-1.9242,-1.9321,-1.9321,-1.932,-1.932,-1.932,-1.8767,-1.88,-1.8844,-1.8891,-1.8924,-1.896,-1.8995,-1.9023,-1.9066,-1.912,-1.9134,-1.9187,-1.923,-1.9299,-1.9327,-1.9369,-1.9364,-1.9378,-1.9381,-1.9384,-1.9385,-1.9308,-1.9378,-1.9378,-1.9378,-1.9378,-1.9378,0,-1.8827,-1.8856,-1.8899,-1.8954,-1.8991,-1.8996,-1.9039,-1.907,-1.9117,-1.9156,-1.9197,-1.9256,-1.9304,-1.9342,-1.9391,-1.9418,-1.9423,-1.943,-1.9428,-1.9434,-1.9386,-1.9373,-1.9425,-1.9425,-1.9425,-1.9425,-1.9425,-1.9425,-1.8862,-1.8918,-1.8936,-1.9008,-1.9037,-1.9089,-1.9114,-1.9148,-1.9179,-1.9244,-1.9284,-1.9308,-1.9347,-1.9399,-1.9444,-1.9454,-1.9472,-1.9478,-1.9488,-1.9443,-1.9438,-1.9433,-1.942,-1.9482,-1.9482,-1.9533,-1.9533,-1.9534]}]]